Location: Mapua
(41.2500°S, 173.1000°E)
Time: 16:46:18
(UTC+13:00)

Tiangong 2 - Visible Passes

Search period start: 16 November 2018 00:00
Search period end: 26 November 2018 00:00
Orbit: 382 x 393 km, 42.8° (Epoch: 15 November)

Date Brightness Start Highest point End Pass type
(mag) Time Alt. Az. Time Alt. Az. Time Alt. Az.
16 Nov 0.9 04:00:46 77° NW 04:00:52 78° NNW 04:04:04 10° ENE visible
17 Nov 1.9 04:38:05 26° WNW 04:38:58 31° NNW 04:41:51 10° NE visible
18 Nov 3.2 05:16:01 10° NW 05:16:47 11° NW 05:17:36 10° NNW visible
19 Nov 2.7 22:26:34 10° NW 22:28:04 24° NW 22:28:04 24° NW visible
20 Nov 2.0 21:28:21 10° NW 21:31:11 29° NNE 21:33:36 13° E visible
20 Nov 3.1 23:04:36 10° W 23:05:58 23° W 23:05:58 23° W visible
21 Nov 1.0 22:06:02 10° WNW 22:09:14 74° NNE 22:10:56 25° E visible
21 Nov 4.1 23:42:56 10° W 23:43:14 12° W 23:43:14 12° W visible
22 Nov 1.4 21:07:34 10° NW 21:10:41 48° NNE 21:13:48 10° E visible
22 Nov 1.4 22:44:16 10° W 22:47:28 67° S 22:47:48 61° SE visible
23 Nov 1.2 21:45:37 10° W 21:48:50 80° SSW 21:52:04 10° ESE visible
23 Nov 2.8 23:22:34 10° WSW 23:24:23 30° WSW 23:24:23 30° WSW visible
24 Nov 1.5 22:23:55 10° W 22:27:07 63° S 22:28:31 30° ESE visible
25 Nov 4.3 00:00:47 10° WSW 00:00:47 10° WSW 00:00:47 10° WSW visible
25 Nov 1.5 21:25:14 10° W 21:28:26 66° S 21:31:40 10° ESE visible
25 Nov 1.6 23:02:09 10° WSW 23:04:49 57° WSW 23:04:49 57° WSW visible
